DW6743 Weather Reports


Display with metric or nautical units.
time (UTC)temp
F
wind
direction
speed
MPH
gust
MPH
rain 1hr
in
rain 24hr
in
rain mn
in
humidity
%
barometer
mb
20260906114804 63 299 16.0 24.0 0.00 0.00 0.00 73 1019.6
20260906114627 62 331 17.0 24.0 0.00 0.00 0.00 73 1019.5
20260906114304 63 312 16.0 23.0 0.00 0.00 0.00 73 1019.5
20260906113804 62 316 17.0 23.0 0.00 0.00 0.00 71 1019.5
20260906113304 63 308 16.0 22.0 0.00 0.00 0.00 71 1019.4
20260906113115 63 310 17.0 22.0 0.00 0.00 0.00 70 1019.3
20260906111804 63 308 14.0 20.0 0.00 0.00 0.00 71 1019.2
20260906111606 63 305 15.0 22.0 0.00 0.00 0.00 72 1019.1
20260906111304 63 321 16.0 21.0 0.00 0.00 0.00 72 1019.1
20260906110804 63 314 15.0 20.0 0.00 0.00 0.00 71 1019.1
20260906110304 63 316 14.0 20.0 0.00 0.00 0.00 71 1019.0
20260906110110 62 310 13.0 20.0 0.00 0.00 0.00 71 1018.9
20260906104804 63 318 17.0 21.0 0.00 0.13 0.00 73 1019.0
20260906104605 63 318 16.0 22.0 0.00 0.00 0.00 73 1018.9
20260906104304 63 318 17.0 22.0 0.00 0.13 0.00 73 1018.8
20260906103804 63 316 16.0 22.0 0.00 0.13 0.00 73 1018.8
20260906103305 63 322 17.0 21.0 0.00 0.13 0.00 73 1018.7
20260906103103 62 310 12.0 20.0 0.00 0.00 0.00 73 1018.6
20260906101804 63 314 13.0 20.0 0.00 0.13 0.00 74 1018.5
20260906101606 62 305 12.0 22.0 0.00 0.00 0.00 73 1018.4
20260906101303 62 325 11.0 22.0 0.00 0.13 0.00 74 1018.5
20260906100804 62 317 13.0 22.0 0.00 0.13 0.00 74 1018.5
20260906100110 62 318 15.0 20.0 0.00 0.00 0.00 74 1018.4
20260906094815 63 314 15.0 20.0 0.00 0.13 0.00 74 1018.4
20260906094608 62 314 13.0 21.0 0.00 0.00 0.00 74 1018.3
20260906094304 63 322 16.0 21.0 0.00 0.13 0.00 74 1018.3
20260906093804 63 318 10.0 20.0 0.00 0.27 0.00 73 1018.2
20260906093108 62 333 13.0 21.0 0.00 0.00 0.00 73 1018.1
20260906091804 63 316 14.0 21.0 0.00 0.27 0.00 74 1017.9
20260906091616 62 305 15.0 21.0 0.00 0.00 0.00 74 1018.0
20260906091304 63 321 13.0 20.0 0.00 0.27 0.00 74 1017.9
20260906090803 63 317 12.0 17.0 0.00 0.27 0.00 74 1017.7
20260906090112 62 327 10.0 20.0 0.00 0.00 0.00 74 1017.8
20260906084804 62 326 13.0 20.0 0.00 0.27 0.00 74 1017.7
20260906084607 62 329 11.0 20.0 0.00 0.01 0.00 74 1017.6
20260906084304 62 322 15.0 20.0 0.00 0.27 0.00 75 1017.7
20260906083804 62 331 12.0 20.0 0.00 0.27 0.00 75 1017.7
20260906083304 62 321 11.0 20.0 0.00 0.27 0.00 75 1017.6
20260906083107 62 333 10.0 20.0 0.00 0.01 0.00 75 1017.5
20260906081804 62 335 16.0 20.0 0.00 0.28 0.00 76 1017.5
20260906081605 62 335 12.0 20.0 0.00 0.01 0.00 75 1017.4
20260906081304 62 326 12.0 18.0 0.00 0.28 0.00 76 1017.3
20260906080804 62 319 14.0 20.0 0.00 0.28 0.00 77 1017.3
20260906080304 62 329 13.0 20.0 0.00 0.28 0.00 76 1017.2
20260906080111 61 305 12.0 19.0 0.00 0.01 0.00 76 1017.2
20260906074603 62 344 12.0 20.0 0.00 0.01 0.00 77 1017.1
20260906074304 62 332 13.0 20.0 0.00 0.28 0.00 77 1017.0
20260906073804 62 339 14.0 20.0 0.00 0.40 0.00 77 1016.9
20260906073305 62 325 12.0 20.0 0.00 0.40 0.00 77 1016.8
20260906073103 61 340 14.0 19.0 0.00 0.01 0.00 77 1016.7
20260906071614 61 337 14.0 21.0 0.00 0.01 0.00 77 1016.5
20260906071305 62 329 13.0 21.0 0.00 0.40 0.00 78 1016.5
20260906070804 62 328 16.0 21.0 0.00 0.40 0.00 78 1016.5
20260906070304 61 336 14.0 20.0 0.00 0.52 0.00 78 1016.4
20260906070106 61 324 12.0 20.0 0.00 0.01 0.00 78 1016.4
20260906064804 61 324 16.0 21.0 0.00 0.52 0.00 79 1016.3
20260906064603 61 338 12.0 21.0 0.00 0.01 0.00 78 1016.2
20260906064304 61 328 12.0 18.0 0.00 0.52 0.00 78 1016.2
20260906063804 61 329 14.0 20.0 0.00 0.52 0.00 79 1016.3
20260906063304 61 333 14.0 20.0 0.00 0.52 0.00 79 1016.1
20260906063105 60 354 11.0 22.0 0.00 0.01 0.00 78 1016.1
20260906061608 60 330 13.0 22.0 0.00 0.01 0.00 79 1016.0
20260906061304 61 332 14.0 21.0 0.00 0.52 0.00 79 1016.0
20260906060804 61 335 13.0 21.0 0.00 0.52 0.00 79 1016.0
20260906060304 61 335 17.0 23.0 0.00 0.52 0.00 79 1015.9
20260906060151 60 339 16.0 22.0 0.00 0.01 0.00 79 1015.9
20260906054804 60 332 15.0 21.0 0.00 0.52 0.00 80 1015.7
20260906054616 60 339 14.0 21.0 0.00 0.01 0.00 79 1015.7
20260906054304 60 329 16.0 21.0 0.00 0.52 0.00 80 1015.7
20260906053804 60 333 12.0 20.0 0.00 0.52 0.00 80 1015.6
20260906053304 60 334 12.0 21.0 0.00 0.52 0.00 80 1015.4
20260906053105 60 339 13.0 21.0 0.00 0.01 0.00 79 1015.4
20260906051804 60 330 16.0 22.0 0.00 0.52 0.00 80 1015.2
20260906051605 60 330 11.0 20.0 0.00 0.01 0.00 80 1015.2
20260906051304 60 326 11.0 20.0 0.00 0.52 0.00 80 1015.1
20260906050804 60 323 12.0 20.0 0.00 0.52 0.00 80 1015.2
20260906050304 60 334 14.0 22.0 0.00 0.52 0.00 81 1015.1
20260906050116 60 320 13.0 22.0 0.00 0.01 0.00 80 1015.0
20260906044804 60 329 15.0 23.0 0.00 0.52 0.00 80 1014.9
20260906044602 60 314 15.0 23.0 0.00 0.01 0.00 80 1014.9
20260906043112 60 342 15.0 22.0 0.00 0.01 0.00 80 1014.7
20260906041604 60 337 14.0 23.0 0.00 0.01 0.00 80 1014.3
20260906041304 60 339 14.0 18.0 0.00 0.64 0.00 80 1014.4
20260906040804 60 327 13.0 22.0 0.00 0.64 0.00 80 1014.3
20260906040111 60 333 14.0 24.0 0.00 0.01 0.00 80 1014.1
20260906034804 60 339 16.0 22.0 0.00 0.64 0.00 80 1014.0
20260906034603 60 339 16.0 25.0 0.00 0.01 0.00 80 1014.0
20260906034304 60 337 17.0 23.0 0.00 0.64 0.00 80 1014.0
20260906033804 60 332 16.0 25.0 0.00 0.64 0.00 80 1014.0
20260906033107 60 324 14.0 22.0 0.00 0.01 0.00 79 1013.9
20260906031804 61 341 16.0 21.0 0.00 0.64 0.00 80 1013.7
20260906031630 60 332 13.0 22.0 0.00 0.01 0.00 79 1013.6
20260906031304 60 336 16.0 22.0 0.00 0.64 0.00 80 1013.7
20260906030804 60 333 14.0 22.0 0.00 0.64 0.00 80 1013.7
20260906030109 60 339 14.0 21.0 0.00 0.01 0.00 80 1013.6
20260906024804 61 335 15.0 21.0 0.00 0.64 0.00 80 1013.5
20260906024608 60 329 14.0 24.0 0.00 0.01 0.00 80 1013.4
20260906023804 61 338 14.0 24.0 0.00 0.64 0.00 81 1013.3
20260906023304 61 337 17.0 24.0 0.00 0.64 0.00 81 1013.3
20260906023113 60 332 15.0 24.0 0.00 0.01 0.00 80 1013.3
20260906021804 61 342 16.0 21.0 0.00 0.76 0.00 81 1013.1
20260906021607 60 332 13.0 22.0 0.00 0.01 0.00 80 1013.1
20260906021304 61 336 16.0 20.0 0.00 0.76 0.00 81 1013.0
20260906020804 61 333 16.0 22.0 0.00 0.76 0.00 81 1013.0
20260906020109 60 322 15.0 26.0 0.00 0.01 0.00 80 1012.9
20260906014804 61 335 16.0 21.0 0.00 0.76 0.00 80 1012.8
20260906014607 60 351 15.0 23.0 0.00 0.01 0.00 80 1012.8
20260906014304 61 334 14.0 23.0 0.00 0.76 0.00 80 1012.8
20260906013804 61 340 15.0 22.0 0.00 0.76 0.00 80 1012.8
20260906013304 61 333 16.0 23.0 0.00 0.76 0.00 80 1012.7
20260906013104 60 310 15.0 23.0 0.00 0.01 0.00 80 1012.7
20260906011804 61 334 12.0 20.0 0.00 0.76 0.00 80 1012.7
20260906011612 61 314 14.0 20.0 0.00 0.01 0.00 80 1012.6
20260906011304 61 337 13.0 18.0 0.00 0.76 0.00 80 1012.6
20260906010114 60 327 9.0 19.0 0.00 0.01 0.00 80 1012.4
20260906004804 61 340 11.0 15.0 0.00 0.80 0.00 80 1012.1
20260906004603 60 339 10.0 19.0 0.00 0.07 0.00 80 1012.0
20260906004304 61 344 13.0 18.0 0.00 0.80 0.00 80 1012.1
20260906003804 61 342 11.0 20.0 0.00 0.80 0.00 81 1012.0
20260906003304 61 345 9.0 16.0 0.00 0.81 0.00 81 1011.9
20260906003108 60 343 11.0 16.0 0.00 0.07 0.00 80 1011.8
20260906001613 60 330 10.0 18.0 0.00 0.07 0.00 81 1011.7
20260906000804 61 338 13.0 18.0 0.00 0.81 0.00 82 1011.8
20260906000110 61 336 12.0 17.0 0.00 0.07 0.00 81 1011.7
20260905234804 61 335 16.0 20.0 0.00 0.84 0.00 82 1011.5
20260905234611 60 345 13.0 19.0 0.00 0.12 0.00 81 1011.5
20260905234304 61 338 13.0 18.0 0.00 0.84 0.00 82 1011.5
20260905233805 61 335 12.0 17.0 0.00 0.85 0.00 82 1011.5
20260905233112 60 345 11.0 17.0 0.00 0.12 0.00 82 1011.4
20260905231804 61 333 13.0 18.0 0.00 0.85 0.00 83 1011.3
20260905231619 60 358 8.0 13.0 0.00 0.12 0.00 82 1011.2
20260905231304 61 333 9.0 13.0 0.00 0.86 0.00 83 1011.2
20260905230804 61 337 10.0 13.0 0.00 0.87 0.00 82 1011.1
20260905230303 61 332 10.0 16.0 0.00 0.87 0.00 82 1011.1
20260905230114 60 326 7.0 16.0 0.00 0.12 0.00 81 1011.0
20260905224804 60 331 9.0 12.0 0.00 0.87 0.00 80 1010.9
20260905224604 60 331 7.0 13.0 0.00 0.13 0.00 80 1010.8
20260905224304 60 328 8.0 13.0 0.00 0.87 0.00 80 1010.7
20260905223804 60 331 9.0 12.0 0.00 0.87 0.00 79 1010.7
20260905223304 60 327 7.0 15.0 0.00 0.87 0.00 79 1010.7
20260905223105 60 324 9.0 15.0 0.00 0.13 0.00 78 1010.6
20260905221631 60 327 9.0 15.0 0.00 0.13 0.00 77 1010.4
20260905220830 60 338 11.0 17.0 0.00 0.87 0.00 77 1010.3
20260905220113 59 331 11.0 17.0 0.00 0.13 0.00 78 1010.2
20260905214609 59 341 9.0 16.0 0.00 0.19 0.13 80 1010.1
20260905214303 60 335 9.0 13.0 0.00 0.93 0.13 80 1010.1
20260905213304 60 343 11.0 17.0 0.00 0.94 0.13 80 1009.8
20260905213107 59 338 11.0 17.0 0.00 0.19 0.13 80 1009.7
20260905211605 59 341 8.0 17.0 0.00 0.19 0.13 79 1009.6
20260905210804 60 350 9.0 15.0 0.00 0.94 0.13 80 1009.4
20260905210304 60 358 11.0 17.0 0.00 0.94 0.13 80 1009.2
20260905210116 59 355 9.0 17.0 0.00 0.19 0.13 79 1009.1
20260905204803 60 357 12.0 15.0 0.00 0.99 0.13 80 1008.9
20260905204607 59 348 10.0 17.0 0.00 0.19 0.13 79 1009.0
20260905204304 60 351 12.0 17.0 0.00 0.99 0.13 80 1008.9
20260905203804 60 355 10.0 16.0 0.00 0.99 0.13 79 1008.7
20260905203304 60 351 10.0 18.0 0.00 0.99 0.13 79 1008.7
20260905203103 59 354 9.0 18.0 0.00 0.19 0.13 79 1008.7
20260905201804 60 342 13.0 18.0 0.00 0.99 0.13 80 1008.5
20260905201610 59 339 12.0 19.0 0.00 0.19 0.13 79 1008.4
20260905201304 59 348 10.0 17.0 0.00 0.99 0.13 79 1008.4
20260905200804 60 345 10.0 20.0 0.00 0.99 0.13 80 1008.3
20260905200304 60 353 12.0 20.0 0.00 0.99 0.13 80 1008.2
20260905200131 59 323 13.0 19.0 0.00 0.19 0.13 79 1008.1
20260905194804 60 350 12.0 18.0 0.00 0.99 0.13 79 1007.9
20260905194606 59 352 10.0 19.0 0.00 0.23 0.13 79 1007.7
20260905194304 60 354 12.0 20.0 0.00 0.99 0.13 79 1007.8
20260905193804 60 356 11.0 21.0 0.00 0.99 0.13 78 1007.7
20260905193101 59 334 13.0 23.0 0.00 0.23 0.13 78 1007.6
20260905191804 60 338 15.0 22.0 0.00 1.01 0.13 78 1007.3
20260905191602 60 355 13.0 23.0 0.00 0.23 0.13 77 1007.3
20260905191305 60 356 11.0 22.0 0.00 1.02 0.13 77 1007.3
20260905190804 60 356 15.0 23.0 0.00 1.02 0.13 77 1007.2
20260905190304 60 356 16.0 22.0 0.00 1.03 0.13 77 1007.1
20260905184808 60 0 14.0 24.0 0.00 1.04 0.13 78 1006.8
20260905184609 60 351 15.0 24.0 0.00 0.24 0.13 78 1006.7
20260905184304 60 356 12.0 17.0 0.00 1.04 0.13 78 1006.7
20260905183804 60 351 18.0 23.0 0.00 1.04 0.13 79 1006.5
20260905183304 60 345 18.0 25.0 0.00 1.04 0.13 80 1006.3
20260905183105 60 342 17.0 25.0 0.00 0.24 0.13 79 1006.2
20260905181609 60 339 16.0 25.0 0.00 0.24 0.13 78 1005.9
20260905181304 61 344 16.0 21.0 0.00 1.05 0.13 78 1005.9
20260905180804 61 342 18.0 24.0 0.00 1.05 0.13 78 1005.7
20260905180304 61 345 19.0 30.0 0.00 1.05 0.13 79 1005.7
20260905180116 60 349 18.0 29.0 0.00 0.24 0.13 79 1005.6
20260905174804 62 348 20.0 26.0 0.00 1.05 0.13 80 1005.3
20260905174604 61 337 17.0 29.0 0.00 0.24 0.13 80 1005.3
20260905174304 62 334 18.0 25.0 0.00 1.05 0.13 81 1005.1
20260905173803 62 320 21.0 30.0 0.00 1.06 0.13 81 1005.0
20260905173304 62 318 20.0 30.0 0.00 1.06 0.13 81 1005.0
20260905173132 61 320 16.0 30.0 0.00 0.24 0.13 80 1005.0
20260905171804 62 327 22.0 30.0 0.00 1.06 0.13 80 1004.9
20260905171606 61 325 17.0 31.0 0.00 0.24 0.13 80 1004.8
20260905171304 62 325 21.0 31.0 0.00 1.06 0.13 80 1004.8
20260905170804 62 315 22.0 31.0 0.00 1.06 0.13 80 1004.7
20260905170304 62 335 19.0 36.0 0.00 1.06 0.13 80 1004.7
20260905170106 61 323 19.0 36.0 0.00 0.24 0.13 80 1004.7
20260905164804 61 320 20.0 30.0 0.00 1.06 0.13 81 1004.7
20260905164615 61 305 20.0 32.0 0.00 0.24 0.13 80 1004.7
20260905163304 61 312 20.0 33.0 0.00 1.06 0.13 80 1004.5
20260905163105 61 327 22.0 33.0 0.00 0.24 0.13 80 1004.5
20260905161603 61 331 19.0 30.0 0.00 0.24 0.13 80 1004.4
20260905161304 62 306 20.0 28.0 0.00 1.06 0.13 80 1004.4
20260905160304 61 312 20.0 33.0 0.00 1.06 0.13 79 1004.3
20260905160111 61 296 21.0 33.0 0.00 0.24 0.13 78 1004.2
20260905154804 62 309 22.0 31.0 0.00 1.06 0.13 78 1004.2
20260905154610 61 337 23.0 34.0 0.00 0.24 0.13 77 1004.2
20260905154304 62 307 22.0 35.0 0.00 1.06 0.13 78 1004.2
20260905153804 62 303 24.0 33.0 0.00 1.06 0.13 77 1004.2
20260905153304 62 313 18.0 33.0 0.00 1.06 0.13 77 1004.2
20260905153104 62 319 18.0 33.0 0.00 0.24 0.13 77 1004.2
20260905151804 62 308 22.0 30.0 0.00 1.06 0.13 77 1004.0
20260905151609 62 310 23.0 36.0 0.00 0.24 0.13 76 1004.0
20260905150304 62 301 22.0 35.0 0.00 1.06 0.13 76 1003.9
20260905150108 62 320 24.0 34.0 0.00 0.24 0.13 76 1003.9
20260905144804 62 314 25.0 31.0 0.00 1.06 0.13 76 1003.9
20260905144605 61 323 21.0 34.0 0.00 0.24 0.13 75 1003.7
20260905143804 62 305 25.0 35.0 0.00 1.06 0.13 76 1003.9
20260905143304 63 314 26.0 36.0 0.00 1.06 0.13 74 1004.0
20260905143112 62 297 23.0 33.0 0.00 0.24 0.13 74 1003.8
20260905141804 63 302 27.0 35.0 0.00 1.06 0.13 74 1003.9
20260905141609 63 295 24.0 36.0 0.00 0.24 0.13 74 1003.8
20260905140804 63 301 25.0 35.0 0.00 1.07 0.13 74 1003.8
20260905140304 64 296 20.0 35.0 0.00 1.07 0.13 72 1003.7
20260905140113 63 310 25.0 35.0 0.00 0.24 0.13 71 1003.5
20260905134804 64 302 19.0 29.0 0.00 1.07 0.13 75 1003.5
20260905134609 63 316 23.0 30.0 0.00 0.24 0.13 75 1003.5
20260905134304 63 294 24.0 29.0 0.00 1.07 0.13 74 1003.6
20260905133804 63 297 22.0 30.0 0.00 1.07 0.13 74 1003.5
20260905133304 63 306 26.0 37.0 0.00 1.07 0.13 73 1003.6
20260905133108 63 310 28.0 37.0 0.00 0.24 0.13 72 1003.4
20260905131804 64 294 23.0 29.0 0.00 1.07 0.13 74 1003.5
20260905131608 64 310 22.0 30.0 0.00 0.24 0.13 74 1003.4
20260905131304 64 296 22.0 30.0 0.00 1.07 0.13 74 1003.4
20260905130804 64 307 21.0 30.0 0.00 1.07 0.13 75 1003.5
20260905130107 63 291 22.0 30.0 0.00 0.24 0.13 74 1003.4
20260905124608 63 294 18.0 31.0 0.00 0.24 0.13 74 1003.2
20260905123804 63 293 25.0 35.0 0.00 1.07 0.13 74 1003.3
20260905123304 64 288 24.0 32.0 0.00 1.07 0.13 76 1003.3
20260905123110 63 286 20.0 28.0 0.00 0.24 0.13 76 1003.3
20260905121605 62 281 20.0 32.0 0.00 0.24 0.13 75 1003.2
20260905121304 63 302 24.0 32.0 0.00 1.07 0.13 76 1003.2
20260905120804 63 298 20.0 29.0 0.00 1.07 0.13 76 1003.2
20260905120113 62 284 20.0 29.0 0.00 0.24 0.13 76 1002.9